FW6138 Weather Reports


time (UTC)temp
C
wind
direction
speed
KPH
gust
KPH
rain 1hr
cm
rain 24hr
cm
rain mn
cm
humidity
%
barometer
mb
20260508114531 6 193 1.6 8.0 0.00 0.00 0.00 88 1018.7
20260508111532 6 173 0.0 6.4 0.00 0.00 0.00 88 1018.5
20260508110033 6 198 0.0 3.2 0.00 0.00 0.00 88 1018.4
20260508104528 6 195 0.0 4.8 0.00 0.00 0.00 88 1018.4
20260508103030 5 209 1.6 8.0 0.00 0.00 0.00 89 1018.4
20260508101541 5 197 0.0 0.0 0.00 0.00 0.00 88 1018.5
20260508100031 5 180 1.6 4.8 0.00 0.00 0.00 87 1018.4
20260508094532 5 180 1.6 4.8 0.00 0.00 0.00 86 1018.3
20260508093028 5 165 0.0 4.8 0.00 0.00 0.00 85 1018.2
20260508091530 6 185 0.0 4.8 0.00 0.00 0.00 84 1018.2
20260508090030 6 189 0.0 4.8 0.00 0.00 0.00 83 1018.1
20260508083029 6 157 0.0 6.4 0.00 0.00 0.00 81 1018.1
20260508081607 7 157 3.2 4.8 0.00 0.00 0.00 79 1018.2
20260508080029 7 157 1.6 6.4 0.00 0.00 0.00 77 1018.2
20260508074531 7 158 3.2 6.4 0.00 0.00 0.00 75 1018.1
20260508073032 8 162 3.2 6.4 0.00 0.00 0.00 73 1018.1
20260508071531 8 159 4.8 6.4 0.00 0.00 0.00 71 1018.0
20260508070030 8 159 4.8 8.0 0.00 0.00 0.00 71 1018.1
20260508064530 8 271 1.6 6.4 0.00 0.00 0.00 71 1018.0
20260508061532 10 264 1.6 6.4 0.00 0.00 0.00 65 1018.0
20260508054531 9 278 1.6 8.0 0.00 0.00 0.00 63 1018.0
20260508053028 10 309 0.0 8.0 0.00 0.00 0.00 60 1018.1
20260508050029 10 263 3.2 6.4 0.00 0.00 0.00 56 1018.0
20260508044533 11 241 4.8 8.0 0.00 0.00 0.00 55 1018.0
20260508043030 11 231 3.2 6.4 0.00 0.00 0.00 55 1017.8
20260508041607 13 261 3.2 8.0 0.00 0.00 0.00 51 1017.8
20260508040030 13 278 3.2 8.0 0.00 0.00 0.00 48 1017.6
20260508034532 12 264 4.8 16.1 0.00 0.00 0.00 50 1017.5
20260508033029 13 225 1.6 4.8 0.00 0.00 0.00 44 1017.3
20260508030030 17 234 1.6 12.9 0.00 0.00 0.00 32 1017.0
20260508024530 18 291 6.4 16.1 0.00 0.00 0.00 28 1016.9
20260508023028 18 302 8.0 19.3 0.00 0.00 0.00 27 1016.7
20260508021637 19 307 11.3 29.0 0.00 0.00 0.00 26 1016.6
20260508020029 20 305 11.3 24.1 0.00 0.00 0.00 26 1016.6
20260508014530 20 308 12.9 27.4 0.00 0.00 0.00 25 1016.6
20260508013037 21 304 12.9 32.2 0.00 0.00 0.00 25 1016.6
20260508011530 21 297 12.9 29.0 0.00 0.00 0.00 24 1016.6
20260508010031 21 304 12.9 29.0 0.00 0.00 0.00 24 1016.7
20260508004529 21 301 12.9 24.1 0.00 0.00 0.00 23 1016.6
20260508001533 21 303 14.5 33.8 0.00 0.00 0.00 22 1016.5
20260508000032 21 302 14.5 30.6 0.00 0.00 0.00 23 1016.5
20260507234529 21 305 14.5 29.0 0.00 0.00 0.00 24 1016.6
20260507233032 21 301 14.5 33.8 0.00 0.00 0.00 26 1016.6
20260507231537 21 298 12.9 33.8 0.00 0.00 0.00 27 1016.8
20260507230108 21 299 12.9 33.8 0.00 0.00 0.00 29 1016.9
20260507223155 21 303 14.5 30.6 0.00 0.00 0.00 30 1017.1
20260507221530 21 298 14.5 27.4 0.00 0.00 0.00 31 1017.3
20260507220039 21 302 11.3 24.1 0.00 0.00 0.00 33 1017.4
20260507214535 21 306 12.9 30.6 0.00 0.00 0.00 36 1017.5
20260507211541 21 305 12.9 32.2 0.00 0.00 0.00 41 1017.7
20260507210110 21 293 8.0 27.4 0.00 0.00 0.00 42 1017.9
20260507204534 20 304 8.0 20.9 0.00 0.00 0.00 44 1018.0
20260507203038 20 303 9.7 22.5 0.00 0.00 0.00 45 1018.2
20260507201531 20 307 9.7 19.3 0.00 0.00 0.00 46 1018.3
20260507200031 19 300 9.7 19.3 0.00 0.00 0.00 47 1018.5
20260507194607 18 306 12.9 27.4 0.00 0.00 0.00 48 1018.6
20260507193031 18 295 9.7 25.7 0.00 0.00 0.00 50 1018.8
20260507190105 17 305 12.9 25.7 0.00 0.00 0.00 52 1019.2
20260507184533 17 314 14.5 29.0 0.00 0.00 0.00 53 1019.4
20260507183040 17 322 12.9 25.7 0.00 0.00 0.00 54 1019.5
20260507181538 17 324 11.3 22.5 0.00 0.00 0.00 55 1019.7
20260507180110 -17 0 0.0 0.0 0.00 0.00 0.00 100
20260507174537 16 317 9.7 22.5 0.00 0.00 0.00 56 1019.9
20260507173028 16 309 6.4 19.3 0.00 0.00 0.00 60 1020.2
20260507171534 15 314 8.0 22.5 0.00 0.00 0.00 62 1020.4
20260507170037 15 307 8.0 22.5 0.00 0.00 0.00 64 1020.4
20260507164537 13 304 11.3 25.7 0.00 0.00 0.00 66 1020.4
20260507163030 13 307 11.3 24.1 0.00 0.00 0.00 67 1020.5
20260507160038 13 302 11.3 27.4 0.00 0.00 0.00 70 1020.7
20260507154536 13 310 12.9 22.5 0.00 0.00 0.00 70 1020.8
20260507153031 12 312 11.3 27.4 0.00 0.00 0.00 71 1020.9
20260507150033 12 307 9.7 19.3 0.00 0.00 0.00 75 1021.0
20260507144538 11 300 9.7 20.9 0.00 0.00 0.00 77 1021.1
20260507143030 11 313 9.7 20.9 0.00 0.00 0.00 78 1021.1
20260507141531 11 336 8.0 19.3 0.00 0.00 0.00 79 1021.0
20260507140107 11 317 6.4 17.7 0.00 0.00 0.00 79 1020.8
20260507133029 8 319 4.8 16.1 0.00 0.00 0.00 86 1020.5
20260507131530 8 191 1.6 6.4 0.00 0.00 0.00 86 1020.5
20260507130031 8 107 0.0 6.4 0.00 0.00 0.00 83 1020.4
20260507124531 10 112 0.0 3.2 0.00 0.00 0.00 81 1020.3
20260507123029 11 112 1.6 6.4 0.00 0.00 0.00 79 1020.4
20260507121607 11 228 4.8 17.7 0.00 0.00 0.00 78 1020.3
20260507120037 11 282 6.4 19.3 0.00 0.00 0.00 78 1020.2